Year,Month,Day,Hour,Minute,Value (Times are PST for temperature in C)
2009,08,24,00,00,12.00
2009,08,24,00,01,11.90
2009,08,24,00,02,11.90
2009,08,24,00,03,11.90
2009,08,24,00,04,11.90
2009,08,24,00,05,11.90
2009,08,24,00,06,11.90
2009,08,24,00,07,11.90
2009,08,24,00,08,11.80
2009,08,24,00,09,11.80
2009,08,24,00,10,11.80
2009,08,24,00,11,11.80
2009,08,24,00,12,11.80
2009,08,24,00,13,11.80
2009,08,24,00,14,11.70
2009,08,24,00,15,11.70
2009,08,24,00,16,11.70
2009,08,24,00,17,11.70
2009,08,24,00,18,11.70
2009,08,24,00,19,11.70
2009,08,24,00,20,11.60
2009,08,24,00,21,11.60
2009,08,24,00,22,11.60
2009,08,24,00,23,11.60
2009,08,24,00,24,11.60
2009,08,24,00,25,11.60
2009,08,24,00,26,11.50
2009,08,24,00,27,11.50
2009,08,24,00,28,11.50
2009,08,24,00,29,11.50
2009,08,24,00,30,11.50
2009,08,24,00,31,11.40
2009,08,24,00,32,11.40
2009,08,24,00,33,11.40
2009,08,24,00,34,11.40
2009,08,24,00,35,11.40
2009,08,24,00,36,11.40
2009,08,24,00,37,11.40
2009,08,24,00,38,11.40
2009,08,24,00,39,11.40
2009,08,24,00,40,11.40
2009,08,24,00,41,11.30
2009,08,24,00,42,11.30
2009,08,24,00,43,11.30
2009,08,24,00,44,11.30
2009,08,24,00,45,11.30
2009,08,24,00,46,11.30
2009,08,24,00,47,11.30
2009,08,24,00,48,11.30
2009,08,24,00,49,11.30
2009,08,24,00,50,11.20
2009,08,24,00,51,11.20
2009,08,24,00,52,11.20
2009,08,24,00,53,11.20
2009,08,24,00,54,11.20
2009,08,24,00,55,11.20
2009,08,24,00,56,11.20
2009,08,24,00,57,11.20
2009,08,24,00,58,11.10
2009,08,24,00,59,11.10
2009,08,24,01,00,11.10
2009,08,24,01,01,11.10
2009,08,24,01,02,11.10
2009,08,24,01,03,11.10
2009,08,24,01,04,11.10
2009,08,24,01,05,11.10
2009,08,24,01,06,11.00
2009,08,24,01,07,11.00
2009,08,24,01,08,11.00
2009,08,24,01,09,11.00
2009,08,24,01,10,11.00
2009,08,24,01,11,11.00
2009,08,24,01,12,11.00
2009,08,24,01,13,10.90
2009,08,24,01,14,10.90
2009,08,24,01,15,10.90
2009,08,24,01,16,10.90
2009,08,24,01,17,11.00
2009,08,24,01,18,11.00
2009,08,24,01,19,11.00
2009,08,24,01,20,11.00
2009,08,24,01,21,11.00
2009,08,24,01,22,11.00
2009,08,24,01,23,11.00
2009,08,24,01,24,11.00
2009,08,24,01,25,11.00
2009,08,24,01,26,11.00
2009,08,24,01,27,10.90
2009,08,24,01,28,10.90
2009,08,24,01,29,10.90
2009,08,24,01,30,10.90
2009,08,24,01,31,10.90
2009,08,24,01,32,10.90
2009,08,24,01,33,10.80
2009,08,24,01,34,10.80
2009,08,24,01,35,10.80
2009,08,24,01,36,10.80
2009,08,24,01,37,10.80
2009,08,24,01,38,10.80
2009,08,24,01,39,10.80
2009,08,24,01,40,10.80
2009,08,24,01,41,10.70
2009,08,24,01,42,10.70
2009,08,24,01,43,10.70
2009,08,24,01,44,10.70
2009,08,24,01,45,10.70
2009,08,24,01,46,10.70
2009,08,24,01,47,10.70
2009,08,24,01,48,10.70
2009,08,24,01,49,10.70
2009,08,24,01,50,10.70
2009,08,24,01,51,10.70
2009,08,24,01,52,10.70
2009,08,24,01,53,10.70
2009,08,24,01,54,10.70
2009,08,24,01,55,10.70
2009,08,24,01,56,10.70
2009,08,24,01,57,10.70
2009,08,24,01,58,10.70
2009,08,24,01,59,10.70
2009,08,24,02,00,10.70
2009,08,24,02,01,10.70
2009,08,24,02,02,10.70
2009,08,24,02,03,10.70
2009,08,24,02,04,10.70
2009,08,24,02,05,10.70
2009,08,24,02,06,10.70
2009,08,24,02,07,10.70
2009,08,24,02,08,10.70
2009,08,24,02,09,10.70
2009,08,24,02,10,10.70
2009,08,24,02,11,10.70
2009,08,24,02,12,10.70
2009,08,24,02,13,10.70
2009,08,24,02,14,10.70
2009,08,24,02,15,10.70
2009,08,24,02,16,10.70
2009,08,24,02,17,10.70
2009,08,24,02,18,10.70
2009,08,24,02,19,10.70
2009,08,24,02,20,10.70
2009,08,24,02,21,10.70
2009,08,24,02,22,10.70
2009,08,24,02,23,10.70
2009,08,24,02,24,10.70
2009,08,24,02,25,10.70
2009,08,24,02,26,10.70
2009,08,24,02,27,10.70
2009,08,24,02,28,10.70
2009,08,24,02,29,10.70
2009,08,24,02,30,10.70
2009,08,24,02,31,10.70
2009,08,24,02,32,10.70
2009,08,24,02,33,10.70
2009,08,24,02,34,10.70
2009,08,24,02,35,10.70
2009,08,24,02,36,10.70
2009,08,24,02,37,10.70
2009,08,24,02,38,10.70
2009,08,24,02,39,10.70
2009,08,24,02,40,10.60
2009,08,24,02,41,10.60
2009,08,24,02,42,10.60
2009,08,24,02,43,10.60
2009,08,24,02,44,10.60
2009,08,24,02,45,10.50
2009,08,24,02,46,10.50
2009,08,24,02,47,10.50
2009,08,24,02,48,10.40
2009,08,24,02,49,10.40
2009,08,24,02,50,10.40
2009,08,24,02,51,10.30
2009,08,24,02,52,10.30
2009,08,24,02,53,10.30
2009,08,24,02,54,10.30
2009,08,24,02,55,10.30
2009,08,24,02,56,10.30
2009,08,24,02,57,10.20
2009,08,24,02,58,10.20
2009,08,24,02,59,10.20
2009,08,24,03,00,10.20
2009,08,24,03,01,10.20
2009,08,24,03,02,10.20
2009,08,24,03,03,10.20
2009,08,24,03,04,10.10
2009,08,24,03,05,10.10
2009,08,24,03,06,10.10
2009,08,24,03,07,10.10
2009,08,24,03,08,10.10
2009,08,24,03,09,10.10
2009,08,24,03,10,10.10
2009,08,24,03,11,10.10
2009,08,24,03,12,10.00
2009,08,24,03,13,10.00
2009,08,24,03,14,10.00
2009,08,24,03,15,10.00
2009,08,24,03,16,10.00
2009,08,24,03,17,9.90
2009,08,24,03,18,9.90
2009,08,24,03,19,9.90
2009,08,24,03,20,9.90
2009,08,24,03,21,9.90
2009,08,24,03,22,9.90
2009,08,24,03,23,9.90
2009,08,24,03,24,9.90
2009,08,24,03,25,9.90
2009,08,24,03,26,9.90
2009,08,24,03,27,9.90
2009,08,24,03,28,9.90
2009,08,24,03,29,9.90
2009,08,24,03,30,9.90
2009,08,24,03,31,9.90
2009,08,24,03,32,9.90
2009,08,24,03,33,9.90
2009,08,24,03,34,9.90
2009,08,24,03,35,9.90
2009,08,24,03,36,9.90
2009,08,24,03,37,9.90
2009,08,24,03,38,9.90
2009,08,24,03,39,9.90
2009,08,24,03,40,9.90
2009,08,24,03,41,9.90
2009,08,24,03,42,9.90
2009,08,24,03,43,9.90
2009,08,24,03,44,9.90
2009,08,24,03,45,9.90
2009,08,24,03,46,9.90
2009,08,24,03,47,9.90
2009,08,24,03,48,9.90
2009,08,24,03,49,9.90
2009,08,24,03,50,9.90
2009,08,24,03,51,9.90
2009,08,24,03,52,9.90
2009,08,24,03,53,9.90
2009,08,24,03,54,9.80
2009,08,24,03,55,9.80
2009,08,24,03,56,9.80
2009,08,24,03,57,9.80
2009,08,24,03,58,9.80
2009,08,24,03,59,9.80
2009,08,24,04,00,9.80
2009,08,24,04,01,9.80
2009,08,24,04,02,9.80
2009,08,24,04,03,9.80
2009,08,24,04,04,9.70
2009,08,24,04,05,9.70
2009,08,24,04,06,9.70
2009,08,24,04,07,9.70
2009,08,24,04,08,9.70
2009,08,24,04,09,9.70
2009,08,24,04,10,9.70
2009,08,24,04,11,9.70
2009,08,24,04,12,9.70
2009,08,24,04,13,9.70
2009,08,24,04,14,9.70
2009,08,24,04,15,9.70
2009,08,24,04,16,9.60
2009,08,24,04,17,9.60
2009,08,24,04,18,9.60
2009,08,24,04,19,9.60
2009,08,24,04,20,9.60
2009,08,24,04,21,9.60
2009,08,24,04,22,9.60
2009,08,24,04,23,9.60
2009,08,24,04,24,9.60
2009,08,24,04,25,9.60
2009,08,24,04,26,9.60
2009,08,24,04,27,9.60
2009,08,24,04,28,9.60
2009,08,24,04,29,9.60
2009,08,24,04,30,9.60
2009,08,24,04,31,9.50
2009,08,24,04,32,9.50
2009,08,24,04,33,9.50
2009,08,24,04,34,9.50
2009,08,24,04,35,9.50
2009,08,24,04,36,9.40
2009,08,24,04,37,9.40
2009,08,24,04,38,9.40
2009,08,24,04,39,9.40
2009,08,24,04,40,9.40
2009,08,24,04,41,9.40
2009,08,24,04,42,9.40
2009,08,24,04,43,9.40
2009,08,24,04,44,9.40
2009,08,24,04,45,9.40
2009,08,24,04,46,9.40
2009,08,24,04,47,9.40
2009,08,24,04,48,9.40
2009,08,24,04,49,9.40
2009,08,24,04,50,9.40
2009,08,24,04,51,9.40
2009,08,24,04,52,9.40
2009,08,24,04,53,9.40
2009,08,24,04,54,9.40
2009,08,24,04,55,9.40
2009,08,24,04,56,9.30
2009,08,24,04,57,9.30
2009,08,24,04,58,9.30
2009,08,24,04,59,9.30
2009,08,24,05,00,9.30
2009,08,24,05,01,9.30
2009,08,24,05,02,9.30
2009,08,24,05,03,9.30
2009,08,24,05,04,9.30
2009,08,24,05,05,9.30
2009,08,24,05,06,9.30
2009,08,24,05,07,9.30
2009,08,24,05,08,9.30
2009,08,24,05,09,9.30
2009,08,24,05,10,9.30
2009,08,24,05,11,9.30
2009,08,24,05,12,9.20
2009,08,24,05,13,9.20
2009,08,24,05,14,9.20
2009,08,24,05,15,9.20
2009,08,24,05,16,9.20
2009,08,24,05,17,9.20
2009,08,24,05,18,9.20
2009,08,24,05,19,9.20
2009,08,24,05,20,9.20
2009,08,24,05,21,9.20
2009,08,24,05,22,9.10
2009,08,24,05,23,9.10
2009,08,24,05,24,9.10
2009,08,24,05,25,9.10
2009,08,24,05,26,9.10
2009,08,24,05,27,9.10
2009,08,24,05,28,9.10
2009,08,24,05,29,9.10
2009,08,24,05,30,9.10
2009,08,24,05,31,9.10
2009,08,24,05,32,9.10
2009,08,24,05,33,9.10
2009,08,24,05,34,9.10
2009,08,24,05,35,9.10
2009,08,24,05,36,9.10
2009,08,24,05,37,9.10
2009,08,24,05,38,9.10
2009,08,24,05,39,9.10
2009,08,24,05,40,9.00
2009,08,24,05,41,9.00
2009,08,24,05,42,9.00
2009,08,24,05,43,9.00
2009,08,24,05,44,9.00
2009,08,24,05,45,8.90
2009,08,24,05,46,8.90
2009,08,24,05,47,8.90
2009,08,24,05,48,8.90
2009,08,24,05,49,8.90
2009,08,24,05,50,8.90
2009,08,24,05,51,8.90
2009,08,24,05,52,8.90
2009,08,24,05,53,8.90
2009,08,24,05,54,8.90
2009,08,24,05,55,8.90
2009,08,24,05,56,8.90
2009,08,24,05,57,8.90
2009,08,24,05,58,8.90
2009,08,24,05,59,8.90
2009,08,24,06,00,8.90
2009,08,24,06,01,8.90
2009,08,24,06,02,8.90
2009,08,24,06,03,8.90
2009,08,24,06,04,8.90
2009,08,24,06,05,8.90
2009,08,24,06,06,8.90
2009,08,24,06,07,8.90
2009,08,24,06,08,8.90
2009,08,24,06,09,8.90
2009,08,24,06,10,8.90
2009,08,24,06,11,8.90
2009,08,24,06,12,8.90
2009,08,24,06,13,8.90
2009,08,24,06,14,8.90
2009,08,24,06,15,8.90
2009,08,24,06,16,8.90
2009,08,24,06,17,8.90
2009,08,24,06,18,8.90
2009,08,24,06,19,8.90
2009,08,24,06,20,8.90
2009,08,24,06,21,8.90
2009,08,24,06,22,8.90
2009,08,24,06,23,8.80
2009,08,24,06,24,8.80
2009,08,24,06,25,8.80
2009,08,24,06,26,8.80
2009,08,24,06,27,8.80
2009,08,24,06,28,8.80
2009,08,24,06,29,8.80
2009,08,24,06,30,8.80
2009,08,24,06,31,8.80
2009,08,24,06,32,8.80
2009,08,24,06,33,8.80
2009,08,24,06,34,8.80
2009,08,24,06,35,8.80
2009,08,24,06,36,8.80
2009,08,24,06,37,8.80
2009,08,24,06,38,8.80
2009,08,24,06,39,8.80
2009,08,24,06,40,8.80
2009,08,24,06,41,8.80
2009,08,24,06,42,8.80
2009,08,24,06,43,8.80
2009,08,24,06,44,8.80
2009,08,24,06,45,8.80
2009,08,24,06,46,8.80
2009,08,24,06,47,8.80
2009,08,24,06,48,8.80
2009,08,24,06,49,8.80
2009,08,24,06,50,8.80
2009,08,24,06,51,8.80
2009,08,24,06,52,8.80
2009,08,24,06,53,8.80
2009,08,24,06,54,8.80
2009,08,24,06,55,8.80
2009,08,24,06,56,8.80
2009,08,24,06,57,8.80
2009,08,24,06,58,8.80
2009,08,24,06,59,8.80
2009,08,24,07,00,8.80
2009,08,24,07,01,8.80
2009,08,24,07,02,8.80
2009,08,24,07,03,8.80
2009,08,24,07,04,8.80
2009,08,24,07,05,8.80
2009,08,24,07,06,8.80
2009,08,24,07,07,8.80
2009,08,24,07,08,8.80
2009,08,24,07,09,8.80
2009,08,24,07,10,8.80
2009,08,24,07,11,8.80
2009,08,24,07,12,8.80
2009,08,24,07,13,8.80
2009,08,24,07,14,8.80
2009,08,24,07,15,8.80
2009,08,24,07,16,8.80
2009,08,24,07,17,8.80
2009,08,24,07,18,8.80
2009,08,24,07,19,8.80
2009,08,24,07,20,8.90
2009,08,24,07,21,8.90
2009,08,24,07,22,8.90
2009,08,24,07,23,8.90
2009,08,24,07,24,8.90
2009,08,24,07,25,8.90
2009,08,24,07,26,8.90
2009,08,24,07,27,8.90
2009,08,24,07,28,8.90
2009,08,24,07,29,8.90
2009,08,24,07,30,8.90
2009,08,24,07,31,8.90
2009,08,24,07,32,8.90
2009,08,24,07,33,8.90
2009,08,24,07,34,8.90
2009,08,24,07,35,8.90
2009,08,24,07,36,8.90
2009,08,24,07,37,8.90
2009,08,24,07,38,9.00
2009,08,24,07,39,9.00
2009,08,24,07,40,9.00
2009,08,24,07,41,9.00
2009,08,24,07,42,9.00
2009,08,24,07,43,9.00
2009,08,24,07,44,9.00
2009,08,24,07,45,9.00
2009,08,24,07,46,9.10
2009,08,24,07,47,9.10
2009,08,24,07,48,9.10
2009,08,24,07,49,9.10
2009,08,24,07,50,9.10
2009,08,24,07,51,9.10
2009,08,24,07,52,9.10
2009,08,24,07,53,9.10
2009,08,24,07,54,9.20
2009,08,24,07,55,9.20
2009,08,24,07,56,9.20
2009,08,24,07,57,9.20
2009,08,24,07,58,9.20
2009,08,24,07,59,9.20
2009,08,24,08,00,9.20
2009,08,24,08,01,9.30
2009,08,24,08,02,9.30
2009,08,24,08,03,9.30
2009,08,24,08,04,9.30
2009,08,24,08,05,9.30
2009,08,24,08,06,9.30
2009,08,24,08,07,9.40
2009,08,24,08,08,9.40
2009,08,24,08,09,9.40
2009,08,24,08,10,9.40
2009,08,24,08,11,9.50
2009,08,24,08,12,9.50
2009,08,24,08,13,9.50
2009,08,24,08,14,9.50
2009,08,24,08,15,9.60
2009,08,24,08,16,9.60
2009,08,24,08,17,9.60
2009,08,24,08,18,9.60
2009,08,24,08,19,9.60
2009,08,24,08,20,9.60
2009,08,24,08,21,9.70
2009,08,24,08,22,9.70
2009,08,24,08,23,9.70
2009,08,24,08,24,9.70
2009,08,24,08,25,9.70
2009,08,24,08,26,9.80
2009,08,24,08,27,9.80
2009,08,24,08,28,9.80
2009,08,24,08,29,9.80
2009,08,24,08,30,9.80
2009,08,24,08,31,9.90
2009,08,24,08,32,9.90
2009,08,24,08,33,9.90
2009,08,24,08,34,10.00
2009,08,24,08,35,10.00
2009,08,24,08,36,10.10
2009,08,24,08,37,10.10
2009,08,24,08,38,10.10
2009,08,24,08,39,10.20
2009,08,24,08,40,10.20
2009,08,24,08,41,10.30
2009,08,24,08,42,10.30
2009,08,24,08,43,10.30
2009,08,24,08,44,10.40
2009,08,24,08,45,10.40
2009,08,24,08,46,10.50
2009,08,24,08,47,10.50
2009,08,24,08,48,10.60
2009,08,24,08,49,10.60
2009,08,24,08,50,10.60
2009,08,24,08,51,10.60
2009,08,24,08,52,10.70
2009,08,24,08,53,10.70
2009,08,24,08,54,10.70
2009,08,24,08,55,10.80
2009,08,24,08,56,10.80
2009,08,24,08,57,10.80
2009,08,24,08,58,10.80
2009,08,24,08,59,10.90
2009,08,24,09,00,10.90
2009,08,24,09,01,11.00
2009,08,24,09,02,11.00
2009,08,24,09,03,11.10
2009,08,24,09,04,11.10
2009,08,24,09,05,11.10
2009,08,24,09,06,11.10
2009,08,24,09,07,11.10
2009,08,24,09,08,11.20
2009,08,24,09,09,11.20
2009,08,24,09,10,11.20
2009,08,24,09,11,11.20
2009,08,24,09,12,11.30
2009,08,24,09,13,11.30
2009,08,24,09,14,11.30
2009,08,24,09,15,11.40
2009,08,24,09,16,11.40
2009,08,24,09,17,11.50
2009,08,24,09,18,11.50
2009,08,24,09,19,11.60
2009,08,24,09,20,11.70
2009,08,24,09,21,11.70
2009,08,24,09,22,11.80
2009,08,24,09,23,11.80
2009,08,24,09,24,11.90
2009,08,24,09,25,11.90
2009,08,24,09,26,12.00
2009,08,24,09,27,12.00
2009,08,24,09,28,12.10
2009,08,24,09,29,12.10
2009,08,24,09,30,12.20
2009,08,24,09,31,12.20
2009,08,24,09,32,12.20
2009,08,24,09,33,12.30
2009,08,24,09,34,12.30
2009,08,24,09,35,12.30
2009,08,24,09,36,12.30
2009,08,24,09,37,12.40
2009,08,24,09,38,12.40
2009,08,24,09,39,12.40
2009,08,24,09,40,12.50
2009,08,24,09,41,12.50
2009,08,24,09,42,12.60
2009,08,24,09,43,12.60
2009,08,24,09,44,12.70
2009,08,24,09,45,12.70
2009,08,24,09,46,12.80
2009,08,24,09,47,12.80
2009,08,24,09,48,12.90
2009,08,24,09,49,12.90
2009,08,24,09,50,13.00
2009,08,24,09,51,13.10
2009,08,24,09,52,13.10
2009,08,24,09,53,13.20
2009,08,24,09,54,13.20
2009,08,24,09,55,13.30
2009,08,24,09,56,13.30
2009,08,24,09,57,13.40
2009,08,24,09,58,13.50
2009,08,24,09,59,13.50
2009,08,24,10,00,13.60
2009,08,24,10,01,13.70
2009,08,24,10,02,13.70
2009,08,24,10,03,13.80
2009,08,24,10,04,13.80
2009,08,24,10,05,13.80
2009,08,24,10,06,13.90
2009,08,24,10,07,14.00
2009,08,24,10,08,14.00
2009,08,24,10,09,14.10
2009,08,24,10,10,14.20
2009,08,24,10,11,14.20
2009,08,24,10,12,14.30
2009,08,24,10,13,14.30
2009,08,24,10,14,14.40
2009,08,24,10,15,14.50
2009,08,24,10,16,14.50
2009,08,24,10,17,14.60
2009,08,24,10,18,14.70
2009,08,24,10,19,14.70
2009,08,24,10,20,14.80
2009,08,24,10,21,14.80
2009,08,24,10,22,14.90
2009,08,24,10,23,15.00
2009,08,24,10,24,15.00
2009,08,24,10,25,15.00
2009,08,24,10,26,15.00
2009,08,24,10,27,15.00
2009,08,24,10,28,15.00
2009,08,24,10,29,15.10
2009,08,24,10,30,15.20
2009,08,24,10,31,15.30
2009,08,24,10,32,15.40
2009,08,24,10,33,15.40
2009,08,24,10,34,15.50
2009,08,24,10,35,15.50
2009,08,24,10,36,15.60
2009,08,24,10,37,15.70
2009,08,24,10,38,15.70
2009,08,24,10,39,15.80
2009,08,24,10,40,15.90
2009,08,24,10,41,16.00
2009,08,24,10,42,16.10
2009,08,24,10,43,16.10
2009,08,24,10,44,16.20
2009,08,24,10,45,16.20
2009,08,24,10,46,16.30
2009,08,24,10,47,16.30
2009,08,24,10,48,16.40
2009,08,24,10,49,16.50
2009,08,24,10,50,16.60
2009,08,24,10,51,16.80
2009,08,24,10,52,16.90
2009,08,24,10,53,17.00
2009,08,24,10,54,17.00
2009,08,24,10,55,17.10
2009,08,24,10,56,17.10
2009,08,24,10,57,17.20
2009,08,24,10,58,17.30
2009,08,24,10,59,17.40
2009,08,24,11,00,17.50
2009,08,24,11,01,17.60
2009,08,24,11,02,17.70
2009,08,24,11,03,17.80
2009,08,24,11,04,17.90
2009,08,24,11,05,18.00
2009,08,24,11,06,18.10
2009,08,24,11,07,18.20
2009,08,24,11,08,18.30
2009,08,24,11,09,18.40
2009,08,24,11,10,18.50
2009,08,24,11,11,18.60
2009,08,24,11,12,18.70
2009,08,24,11,13,18.80
2009,08,24,11,14,18.80
2009,08,24,11,15,18.90
2009,08,24,11,16,19.00
2009,08,24,11,17,19.00
2009,08,24,11,18,19.10
2009,08,24,11,19,19.20
2009,08,24,11,20,19.20
2009,08,24,11,21,19.30
2009,08,24,11,22,19.30
2009,08,24,11,23,19.30
2009,08,24,11,24,19.30
2009,08,24,11,25,19.40
2009,08,24,11,26,19.40
2009,08,24,11,27,19.40
2009,08,24,11,28,19.40
2009,08,24,11,29,19.40
2009,08,24,11,30,19.50
2009,08,24,11,31,19.50
2009,08,24,11,32,19.60
2009,08,24,11,33,19.60
2009,08,24,11,34,19.70
2009,08,24,11,35,19.70
2009,08,24,11,36,19.80
2009,08,24,11,37,19.80
2009,08,24,11,38,19.90
2009,08,24,11,39,19.90
2009,08,24,11,40,20.00
2009,08,24,11,41,20.00
2009,08,24,11,42,20.10
2009,08,24,11,43,20.10
2009,08,24,11,44,20.10
2009,08,24,11,45,20.10
2009,08,24,11,46,20.10
2009,08,24,11,47,20.10
2009,08,24,11,48,20.10
2009,08,24,11,49,20.10
2009,08,24,11,50,20.20
2009,08,24,11,51,20.20
2009,08,24,11,52,20.30
2009,08,24,11,53,20.30
2009,08,24,11,54,20.30
2009,08,24,11,55,20.30
2009,08,24,11,56,20.40
2009,08,24,11,57,20.40
2009,08,24,11,58,20.40
2009,08,24,11,59,20.50
2009,08,24,12,00,20.50
2009,08,24,12,01,20.60
2009,08,24,12,02,20.60
2009,08,24,12,03,20.70
2009,08,24,12,04,20.70
2009,08,24,12,05,20.80
2009,08,24,12,06,20.80
2009,08,24,12,07,20.90
2009,08,24,12,08,20.90
2009,08,24,12,09,20.90
2009,08,24,12,10,21.00
2009,08,24,12,11,21.00
2009,08,24,12,12,21.10
2009,08,24,12,13,21.10
2009,08,24,12,14,21.10
2009,08,24,12,15,21.20
2009,08,24,12,16,21.20
2009,08,24,12,17,21.20
2009,08,24,12,18,21.20
2009,08,24,12,19,21.10
2009,08,24,12,20,21.10
2009,08,24,12,21,21.10
2009,08,24,12,22,21.00
2009,08,24,12,23,21.00
2009,08,24,12,24,21.10
2009,08,24,12,25,21.10
2009,08,24,12,26,21.20
2009,08,24,12,27,21.20
2009,08,24,12,28,21.30
2009,08,24,12,29,21.30
2009,08,24,12,30,21.40
2009,08,24,12,31,21.40
2009,08,24,12,32,21.50
2009,08,24,12,33,21.60
2009,08,24,12,34,21.70
2009,08,24,12,35,21.70
2009,08,24,12,36,21.80
2009,08,24,12,37,21.70
2009,08,24,12,38,21.60
2009,08,24,12,39,21.40
2009,08,24,12,40,21.30
2009,08,24,12,41,21.30
2009,08,24,12,42,21.30
2009,08,24,12,43,21.30
2009,08,24,12,44,21.20
2009,08,24,12,45,21.20
2009,08,24,12,46,21.20
2009,08,24,12,47,21.30
2009,08,24,12,48,21.30
2009,08,24,12,49,21.30
2009,08,24,12,50,21.30
2009,08,24,12,51,21.40
2009,08,24,12,52,21.40
2009,08,24,12,53,21.50
2009,08,24,12,54,21.50
2009,08,24,12,55,21.60
2009,08,24,12,56,21.60
2009,08,24,12,57,21.60
2009,08,24,12,58,21.60
2009,08,24,12,59,21.60
2009,08,24,13,00,21.70
2009,08,24,13,01,21.70
2009,08,24,13,02,21.70
2009,08,24,13,03,21.70
2009,08,24,13,04,21.80
2009,08,24,13,05,21.80
2009,08,24,13,06,21.80
2009,08,24,13,07,21.80
2009,08,24,13,08,21.80
2009,08,24,13,09,21.80
2009,08,24,13,10,21.80
2009,08,24,13,11,21.80
2009,08,24,13,12,21.90
2009,08,24,13,13,21.90
2009,08,24,13,14,21.90
2009,08,24,13,15,21.90
2009,08,24,13,16,21.90
2009,08,24,13,17,21.80
2009,08,24,13,18,21.80
2009,08,24,13,19,21.80
2009,08,24,13,20,21.80
2009,08,24,13,21,21.80
2009,08,24,13,22,21.80
2009,08,24,13,23,21.80
2009,08,24,13,24,21.80
2009,08,24,13,25,21.80
2009,08,24,13,26,21.80
2009,08,24,13,27,21.80
2009,08,24,13,28,21.80
2009,08,24,13,29,21.90
2009,08,24,13,30,22.00
2009,08,24,13,31,22.00
2009,08,24,13,32,22.10
2009,08,24,13,33,22.10
2009,08,24,13,34,22.10
2009,08,24,13,35,22.20
2009,08,24,13,36,22.20
2009,08,24,13,37,22.20
2009,08,24,13,38,22.30
2009,08,24,13,39,22.40
2009,08,24,13,40,22.40
2009,08,24,13,41,22.50
2009,08,24,13,42,22.60
2009,08,24,13,43,22.70
2009,08,24,13,44,22.80
2009,08,24,13,45,22.80
2009,08,24,13,46,22.90
2009,08,24,13,47,22.90
2009,08,24,13,48,22.90
2009,08,24,13,49,22.90
2009,08,24,13,50,23.00
2009,08,24,13,51,23.00
2009,08,24,13,52,23.00
2009,08,24,13,53,23.00
2009,08,24,13,54,22.90
2009,08,24,13,55,22.90
2009,08,24,13,56,22.90
2009,08,24,13,57,23.00
2009,08,24,13,58,23.00
2009,08,24,13,59,23.10
2009,08,24,14,00,23.10
2009,08,24,14,01,23.20
2009,08,24,14,02,23.30
2009,08,24,14,03,23.40
2009,08,24,14,04,23.50
2009,08,24,14,05,23.60
2009,08,24,14,06,23.60
2009,08,24,14,07,23.70
2009,08,24,14,08,23.80
2009,08,24,14,09,23.90
2009,08,24,14,10,23.90
2009,08,24,14,11,24.00
2009,08,24,14,12,24.10
2009,08,24,14,13,24.10
2009,08,24,14,14,24.10
2009,08,24,14,15,24.20
2009,08,24,14,16,24.20
2009,08,24,14,17,24.30
2009,08,24,14,18,24.30
2009,08,24,14,19,24.50
2009,08,24,14,20,24.60
2009,08,24,14,21,24.70
2009,08,24,14,22,24.90
2009,08,24,14,23,24.90
2009,08,24,14,24,24.90
2009,08,24,14,25,24.80
2009,08,24,14,26,24.80
2009,08,24,14,27,24.90
2009,08,24,14,28,24.90
2009,08,24,14,29,25.00
2009,08,24,14,30,25.10
2009,08,24,14,31,25.10
2009,08,24,14,32,25.10
2009,08,24,14,33,25.10
2009,08,24,14,34,25.10
2009,08,24,14,35,25.10
2009,08,24,14,36,25.10
2009,08,24,14,37,25.10
2009,08,24,14,38,25.20
2009,08,24,14,39,25.20
2009,08,24,14,40,25.20
2009,08,24,14,41,25.20
2009,08,24,14,42,25.10
2009,08,24,14,43,25.20
2009,08,24,14,44,25.30
2009,08,24,14,45,25.40
2009,08,24,14,46,25.50
2009,08,24,14,47,25.50
2009,08,24,14,48,25.50
2009,08,24,14,49,25.50
2009,08,24,14,50,25.50
2009,08,24,14,51,25.60
2009,08,24,14,52,25.60
2009,08,24,14,53,25.60
2009,08,24,14,54,25.70
2009,08,24,14,55,25.60
2009,08,24,14,56,25.60
2009,08,24,14,57,25.50
2009,08,24,14,58,25.50
2009,08,24,14,59,25.50
2009,08,24,15,00,25.40
2009,08,24,15,01,25.40
2009,08,24,15,02,25.40
2009,08,24,15,03,25.30
2009,08,24,15,04,25.30
2009,08,24,15,05,25.40
2009,08,24,15,06,25.40
2009,08,24,15,07,25.40
2009,08,24,15,08,25.50
2009,08,24,15,09,25.60
2009,08,24,15,10,25.70
2009,08,24,15,11,25.70
2009,08,24,15,12,25.70
2009,08,24,15,13,25.60
2009,08,24,15,14,25.60
2009,08,24,15,15,25.60
2009,08,24,15,16,25.60
2009,08,24,15,17,25.70
2009,08,24,15,18,25.80
2009,08,24,15,19,25.90
2009,08,24,15,20,25.90
2009,08,24,15,21,26.00
2009,08,24,15,22,26.10
2009,08,24,15,23,26.10
2009,08,24,15,24,26.10
2009,08,24,15,25,26.10
2009,08,24,15,26,26.10
2009,08,24,15,27,26.00
2009,08,24,15,28,26.10
2009,08,24,15,29,26.10
2009,08,24,15,30,26.20
2009,08,24,15,31,26.20
2009,08,24,15,32,26.20
2009,08,24,15,33,26.20
2009,08,24,15,34,26.20
2009,08,24,15,35,26.20
2009,08,24,15,36,26.10
2009,08,24,15,37,26.10
2009,08,24,15,38,26.00
2009,08,24,15,39,26.00
2009,08,24,15,40,26.00
2009,08,24,15,41,26.00
2009,08,24,15,42,25.90
2009,08,24,15,43,25.90
2009,08,24,15,44,25.90
2009,08,24,15,45,25.90
2009,08,24,15,46,25.90
2009,08,24,15,47,25.90
2009,08,24,15,48,26.00
2009,08,24,15,49,26.20
2009,08,24,15,50,26.30
2009,08,24,15,51,26.30
2009,08,24,15,52,26.40
2009,08,24,15,53,26.50
2009,08,24,15,54,26.60
2009,08,24,15,55,26.60
2009,08,24,15,56,26.70
2009,08,24,15,57,26.80
2009,08,24,15,58,26.80
2009,08,24,15,59,26.80
2009,08,24,16,00,26.70
2009,08,24,16,01,26.70
2009,08,24,16,02,26.70
2009,08,24,16,03,26.70
2009,08,24,16,04,26.80
2009,08,24,16,05,26.80
2009,08,24,16,06,26.80
2009,08,24,16,07,26.80
2009,08,24,16,08,26.70
2009,08,24,16,09,26.70
2009,08,24,16,10,26.60
2009,08,24,16,11,26.60
2009,08,24,16,12,26.60
2009,08,24,16,13,26.50
2009,08,24,16,14,26.40
2009,08,24,16,15,26.30
2009,08,24,16,16,26.20
2009,08,24,16,17,26.10
2009,08,24,16,18,26.00
2009,08,24,16,19,25.90
2009,08,24,16,20,25.90
2009,08,24,16,21,25.90
2009,08,24,16,22,25.90
2009,08,24,16,23,25.80
2009,08,24,16,24,25.80
2009,08,24,16,25,25.70
2009,08,24,16,26,25.70
2009,08,24,16,27,25.60
2009,08,24,16,28,25.50
2009,08,24,16,29,25.40
2009,08,24,16,30,25.30
2009,08,24,16,31,25.30
2009,08,24,16,32,25.20
2009,08,24,16,33,25.20
2009,08,24,16,34,25.10
2009,08,24,16,35,25.10
2009,08,24,16,36,25.10
2009,08,24,16,37,25.10
2009,08,24,16,38,25.10
2009,08,24,16,39,25.10
2009,08,24,16,40,25.00
2009,08,24,16,41,25.00
2009,08,24,16,42,25.00
2009,08,24,16,43,24.90
2009,08,24,16,44,24.90
2009,08,24,16,45,24.80
2009,08,24,16,46,24.80
2009,08,24,16,47,24.80
2009,08,24,16,48,24.80
2009,08,24,16,49,24.80
2009,08,24,16,50,24.80
2009,08,24,16,51,24.80
2009,08,24,16,52,24.70
2009,08,24,16,53,24.60
2009,08,24,16,54,24.50
2009,08,24,16,55,24.40
2009,08,24,16,56,24.40
2009,08,24,16,57,24.30
2009,08,24,16,58,24.30
2009,08,24,16,59,24.20
2009,08,24,17,00,24.20
2009,08,24,17,01,24.20
2009,08,24,17,02,24.20
2009,08,24,17,03,24.30
2009,08,24,17,04,24.30
2009,08,24,17,05,24.40
2009,08,24,17,06,24.50
2009,08,24,17,07,24.50
2009,08,24,17,08,24.60
2009,08,24,17,09,24.70
2009,08,24,17,10,24.80
2009,08,24,17,11,24.90
2009,08,24,17,12,25.00
2009,08,24,17,13,25.00
2009,08,24,17,14,24.90
2009,08,24,17,15,24.90
2009,08,24,17,16,25.00
2009,08,24,17,17,25.00
2009,08,24,17,18,25.10
2009,08,24,17,19,25.20
2009,08,24,17,20,25.20
2009,08,24,17,21,25.20
2009,08,24,17,22,25.10
2009,08,24,17,23,25.10
2009,08,24,17,24,25.20
2009,08,24,17,25,25.20
2009,08,24,17,26,25.20
2009,08,24,17,27,25.20
2009,08,24,17,28,25.10
2009,08,24,17,29,25.10
2009,08,24,17,30,25.00
2009,08,24,17,31,24.90
2009,08,24,17,32,24.90
2009,08,24,17,33,24.90